Monroe, MI

6:33 PM EDT on June 24, 2017 (GMT -0400)
Custer

Weather History for KTTF - March, 2015

Change the Weather History Date:

Saturday, March 7, 2015

  Actual Average Record
Temperature  
Mean Temperature 30 °F -  
Max Temperature 39 °F 41 °F 68 °F (1951)
Min Temperature 21 °F 23 °F 3 °F (1999)
Degree Days  
Heating Degree Days 35    
Moisture  
Dew Point 22 °F    
Average Humidity 71    
Maximum Humidity 81    
Minimum Humidity 63    
Precipitation  
Precipitation 0.00 in - - ()
Sea Level Pressure  
Sea Level Pressure 30.05 in    
Wind  
Wind Speed 12 mph (WSW)    
Max Wind Speed 16 mph    
Max Gust Speed 25 mph    
Visibility 10 miles    
Events      
Averages and records for this station are not official NWS values.
T = Trace of Precipitation, MM = Missing Value Source: NWS Daily Summary

Daily Weather History Graph

Daily Weather History Graph

Search for Another Location

Airport or City:

Trip Planner

Search our weather history database for the weather conditions in past years. The results will help you decide how hot, cold, wet, or windy it might be!

Date:

Astronomy

Mar. 07, 2015 Rise Set
Actual Time 6:59 AM EST 6:30 PM EST
Civil Twilight 6:31 AM EST 6:58 PM EST
Nautical Twilight 5:59 AM EST 7:30 PM EST
Astronomical Twilight 5:26 AM EST 8:03 PM EST
Moon 8:34 PM EST (3/7) 7:44 AM EST (3/7)
Length of Visible Light 12h 27m
Length of Day
11h 31m
Waning Gibbous, 97% of the Moon is Illuminated
Mar 7
Waning Gibbous
Mar 13
Last Quarter
Mar 20
New
Mar 27
First Quarter
Apr 4
Full

Hourly Weather History & Observations

Time (EST) Temp. Windchill Dew Point Humidity Pressure Visibility Wind Dir Wind Speed Gust Speed Precip Events Conditions
12:16 AM 23.0 °F 9.6 °F 12.2 °F 63% 30.18 in 10.0 mi SW 16.1 mph 19.6 mph N/A   Mostly Cloudy
12:36 AM 21.2 °F 8.3 °F 12.2 °F 68% 30.17 in 10.0 mi SW 13.8 mph 20.7 mph N/A   Scattered Clouds
12:56 AM 21.2 °F 7.8 °F 12.2 °F 68% 30.17 in 10.0 mi SW 15.0 mph - N/A   Scattered Clouds
1:10 AM 21.2 °F 8.3 °F 12.2 °F 68% 30.16 in 10.0 mi SW 13.8 mph 21.9 mph N/A   Clear
1:25 AM 21.2 °F 7.8 °F 12.2 °F 68% 30.16 in 10.0 mi SW 15.0 mph 21.9 mph N/A   Clear
1:55 AM 21.2 °F 7.8 °F 12.2 °F 68% 30.16 in 10.0 mi WSW 15.0 mph - N/A   Clear
2:15 AM 21.2 °F 8.3 °F 12.2 °F 68% 30.15 in 10.0 mi WSW 13.8 mph - N/A   Clear
2:26 AM 21.2 °F 7.8 °F 12.2 °F 68% 30.15 in 10.0 mi SW 15.0 mph 21.9 mph N/A   Clear
2:36 AM 21.2 °F 7.8 °F 12.2 °F 68% 30.15 in 10.0 mi WSW 15.0 mph 19.6 mph N/A   Clear
2:55 AM 21.2 °F 9.5 °F 12.2 °F 68% 30.15 in 10.0 mi WSW 11.5 mph - N/A   Clear
3:16 AM 21.2 °F 8.3 °F 12.2 °F 68% 30.14 in 10.0 mi WSW 13.8 mph 19.6 mph N/A   Clear
3:35 AM 21.2 °F 8.9 °F 12.2 °F 68% 30.13 in 10.0 mi WSW 12.7 mph - N/A   Clear
3:56 AM 21.2 °F 10.9 °F 12.2 °F 68% 30.13 in 10.0 mi WSW 9.2 mph - N/A   Clear
4:12 AM 21.2 °F 10.1 °F 12.2 °F 68% 30.13 in 10.0 mi WSW 10.4 mph - N/A   Clear
4:32 AM 21.2 °F 8.9 °F 12.2 °F 68% 30.13 in 10.0 mi SW 12.7 mph - N/A   Clear
4:52 AM 21.2 °F 10.9 °F 12.2 °F 68% 30.12 in 10.0 mi SW 9.2 mph - N/A   Clear
5:12 AM 21.2 °F 11.7 °F 12.2 °F 68% 30.12 in 10.0 mi SW 8.1 mph - N/A   Scattered Clouds
5:32 AM 21.2 °F 13.6 °F 12.2 °F 68% 30.10 in 10.0 mi SW 5.8 mph - N/A   Scattered Clouds
5:52 AM 21.2 °F 14.9 °F 12.2 °F 68% 30.10 in 10.0 mi SW 4.6 mph - N/A   Mostly Cloudy
6:12 AM 21.2 °F - 12.2 °F 68% 30.09 in 10.0 mi Calm Calm - N/A   Overcast
6:32 AM 21.2 °F - 14.0 °F 74% 30.09 in 10.0 mi Calm Calm - N/A   Overcast
6:52 AM 21.2 °F 14.9 °F 14.0 °F 74% 30.09 in 10.0 mi SSW 4.6 mph - N/A   Overcast
7:12 AM 21.2 °F 14.9 °F 14.0 °F 74% 30.08 in 10.0 mi SW 4.6 mph - N/A   Overcast
7:33 AM 21.2 °F 12.6 °F 14.0 °F 74% 30.08 in 10.0 mi SSW 6.9 mph - N/A   Scattered Clouds
7:53 AM 23.0 °F 14.7 °F 14.0 °F 68% 30.08 in 10.0 mi SSW 6.9 mph - N/A   Clear
8:03 AM 23.0 °F 15.8 °F 14.0 °F 68% 30.07 in 10.0 mi SSW 5.8 mph - N/A   Clear
8:33 AM 24.8 °F 17.9 °F 15.8 °F 69% 30.07 in 10.0 mi SW 5.8 mph - N/A   Clear
8:53 AM 24.8 °F 16.1 °F 15.8 °F 69% 30.06 in 10.0 mi SW 8.1 mph - N/A   Clear
9:13 AM 26.6 °F 17.5 °F 17.6 °F 69% 30.06 in 10.0 mi WSW 9.2 mph - N/A   Clear
9:33 AM 26.6 °F 14.7 °F 19.4 °F 74% 30.06 in 10.0 mi WSW 15.0 mph 18.4 mph N/A   Scattered Clouds
9:53 AM 28.4 °F 17.5 °F 19.4 °F 69% 30.06 in 10.0 mi WSW 13.8 mph - N/A   Clear
10:07 AM 28.4 °F 17.5 °F 19.4 °F 69% 30.06 in 10.0 mi WSW 13.8 mph - N/A   Clear
10:33 AM 28.4 °F 16.6 °F 21.2 °F 74% 30.04 in 10.0 mi WSW 16.1 mph - N/A   Clear
10:59 AM 30.2 °F 20.2 °F 21.2 °F 69% 30.04 in 10.0 mi WSW 12.7 mph 19.6 mph N/A   Clear
11:14 AM 30.2 °F 20.2 °F 23.0 °F 75% 30.03 in 10.0 mi WSW 12.7 mph - N/A   Clear
11:34 AM 33.8 °F 24.8 °F 24.8 °F 70% 30.03 in 10.0 mi WSW 12.7 mph - N/A   Scattered Clouds
11:54 AM 33.8 °F 25.3 °F 24.8 °F 70% 30.03 in 10.0 mi WSW 11.5 mph - N/A   Scattered Clouds
12:14 PM 33.8 °F 23.5 °F 24.8 °F 70% 30.02 in 10.0 mi WSW 16.1 mph 20.7 mph N/A   Scattered Clouds
12:34 PM 35.6 °F 26.6 °F 24.8 °F 65% 30.02 in 10.0 mi WSW 13.8 mph - N/A   Scattered Clouds
12:54 PM 35.6 °F 26.2 °F 26.6 °F 70% 30.01 in 10.0 mi WSW 15.0 mph - N/A   Scattered Clouds
1:14 PM 35.6 °F 25.9 °F 26.6 °F 70% 30.00 in 10.0 mi WSW 16.1 mph - N/A   Scattered Clouds
1:29 PM 35.6 °F 26.2 °F 26.6 °F 70% 29.99 in 10.0 mi WSW 15.0 mph - N/A   Clear
1:47 PM 37.4 °F 28.5 °F 26.6 °F 65% 29.98 in 10.0 mi WSW 15.0 mph - N/A   Clear
2:15 PM 37.4 °F 28.9 °F 28.4 °F 70% 29.97 in 10.0 mi WSW 13.8 mph - N/A   Clear
2:35 PM 37.4 °F 28.9 °F 28.4 °F 70% 29.97 in 10.0 mi WSW 13.8 mph - N/A   Clear
2:55 PM 37.4 °F 28.9 °F 28.4 °F 70% 29.97 in 10.0 mi WSW 13.8 mph 20.7 mph N/A   Scattered Clouds
3:15 PM 37.4 °F 28.2 °F 28.4 °F 70% 29.96 in 10.0 mi WSW 16.1 mph 20.7 mph N/A   Scattered Clouds
3:29 PM 39.2 °F 30.5 °F 28.4 °F 65% 29.96 in 10.0 mi WSW 16.1 mph 19.6 mph N/A   Clear
3:55 PM 39.2 °F 30.5 °F 28.4 °F 65% 29.96 in 10.0 mi SW 16.1 mph 20.7 mph N/A   Clear
4:15 PM 39.2 °F 30.8 °F 28.4 °F 65% 29.95 in 10.0 mi WSW 15.0 mph - N/A   Clear
4:35 PM 39.2 °F 31.6 °F 28.4 °F 65% 29.95 in 10.0 mi SW 12.7 mph - N/A   Clear
4:55 PM 39.2 °F 31.2 °F 28.4 °F 65% 29.96 in 10.0 mi SW 13.8 mph 21.9 mph N/A   Clear
5:15 PM 39.2 °F 30.8 °F 28.4 °F 65% 29.95 in 10.0 mi SW 15.0 mph 18.4 mph N/A   Clear
5:36 PM 37.4 °F 29.3 °F 28.4 °F 70% 29.95 in 10.0 mi SW 12.7 mph 20.7 mph N/A   Clear
5:56 PM 37.4 °F 28.9 °F 28.4 °F 70% 29.96 in 10.0 mi SW 13.8 mph - N/A   Clear
6:06 PM 37.4 °F 28.5 °F 28.4 °F 70% 29.96 in 10.0 mi SW 15.0 mph 25.3 mph N/A   Clear
6:34 PM 37.4 °F 28.2 °F 28.4 °F 70% 29.97 in 10.0 mi SW 16.1 mph 21.9 mph N/A   Clear
6:56 PM 37.4 °F 28.9 °F 28.4 °F 70% 29.97 in 10.0 mi SW 13.8 mph 19.6 mph N/A   Clear
7:16 PM 37.4 °F 28.9 °F 28.4 °F 70% 29.97 in 10.0 mi SW 13.8 mph 19.6 mph N/A   Clear
7:35 PM 35.6 °F 27.5 °F 28.4 °F 75% 29.98 in 10.0 mi SW 11.5 mph - N/A   Clear
7:56 PM 35.6 °F 27.1 °F 28.4 °F 75% 29.98 in 10.0 mi WSW 12.7 mph - N/A   Clear
8:16 PM 35.6 °F 27.5 °F 28.4 °F 75% 29.98 in 10.0 mi WSW 11.5 mph - N/A   Scattered Clouds
8:31 PM 35.6 °F 28.0 °F 30.2 °F 81% 29.99 in 10.0 mi WSW 10.4 mph - N/A   Mostly Cloudy
8:52 PM 35.6 °F 27.5 °F 30.2 °F 81% 29.99 in 10.0 mi WSW 11.5 mph - N/A   Overcast
9:12 PM 35.6 °F 27.1 °F 30.2 °F 81% 30.01 in 10.0 mi WSW 12.7 mph - N/A   Overcast
9:32 PM 35.6 °F 27.5 °F 30.2 °F 81% 30.01 in 10.0 mi WSW 11.5 mph - N/A   Overcast
9:52 PM 35.6 °F 27.5 °F 30.2 °F 81% 30.02 in 10.0 mi WSW 11.5 mph - N/A   Overcast
10:12 PM 35.6 °F 28.6 °F 30.2 °F 81% 30.02 in 10.0 mi West 9.2 mph - N/A   Overcast
10:32 PM 35.6 °F 29.2 °F 30.2 °F 81% 30.04 in 10.0 mi West 8.1 mph - N/A   Overcast
10:52 PM 35.6 °F 28.0 °F 30.2 °F 81% 30.05 in 10.0 mi West 10.4 mph - N/A   Mostly Cloudy
11:12 PM 35.6 °F 29.2 °F 28.4 °F 75% 30.05 in 10.0 mi West 8.1 mph - N/A   Scattered Clouds
11:32 PM 33.8 °F 27.7 °F 28.4 °F 81% 30.05 in 10.0 mi WNW 6.9 mph - N/A   Clear
11:52 PM 33.8 °F 26.4 °F 26.6 °F 75% 30.05 in 10.0 mi WNW 9.2 mph - N/A   Clear